This demonstration page uses our WeatherBlox Daily Observations layout. Learn more.

Hourly Observations for April 28, 2018

Temp ( °F °C ) Dew Point ( °F °C ) Humidity (%) Winds ( mph kmh ) Pressure ( in mb ) Visibility ( mi km ) Precip ( " mm )
12:15 am 00:15 Clear 49 9.4 37 2.5 62 62 NE 10 17 30.09 1019 10 16.0934 0 0
12:35 am 00:35 Clear 48 8.8 36 2.2 64 64 ENE 9 15 30.09 1019 10 16.0934 0 0
12:55 am 00:55 Clear 46 8 35 1.8 65 65 ENE 10 17 30.12 1020 10 16.0934 0 0
1:15 am 01:15 Clear 46 7.5 35 1.6 67 67 ENE 10 17 30.12 1020 10 16.0934 0 0
1:35 am 01:35 Clear 46 7.8 34 1.1 63 63 NE 12 19 30.12 1020 10 16.0934 0 0
1:55 am 01:55 Clear 45 7.4 33 0.7 63 63 ENE 10 17 30.12 1020 10 16.0934 0 0
2:15 am 02:15 Clear 44 6.6 33 0.5 65 65 NE 10 17 30.15 1021 10 16.0934 0 0
2:35 am 02:35 Clear 43 6.1 33 0.5 68 68 NE 8 13 30.15 1021 10 16.0934 0 0
2:55 am 02:55 Clear 42 5.6 33 0.5 70 70 ENE 8 13 30.15 1021 10 16.0934 0 0
3:15 am 03:15 Clear 41 5 33 0.3 72 72 ENE 6 9 30.15 1021 10 16.0934 0 0
3:35 am 03:35 Clear 40 4.5 32 0 73 73 ENE 6 9 30.15 1021 10 16.0934 0 0
3:55 am 03:55 Clear 38 3.3 32 0 79 79 NE 5 7 30.18 1022 10 16.0934 0 0
4:15 am 04:15 Clear 37 3 32 -0.2 80 80 NE 6 9 30.21 1023 10 16.0934 0 0
4:35 am 04:35 Clear 37 2.8 32 -0.1 81 81 NNE 3 6 30.21 1023 10 16.0934 0 0
4:55 am 04:55 Clear 37 2.7 31 -0.4 80 80 Calm 30.21 1023 10 16.0934 0 0
5:15 am 05:15 Clear 36 2.4 31 -0.5 81 81 NNE 3 6 30.21 1023 10 16.0934 0 0
5:35 am 05:35 Clear 36 2 31 -0.4 84 84 Calm 30.21 1023 10 16.0934 0 0
5:55 am 05:55 Clear 35 1.4 31 -0.6 87 87 NE 3 6 30.21 1023 10 16.0934 0 0
6:15 am 06:15 Clear 34 1 30 -1 87 87 NE 6 9 30.21 1023 10 16.0934 0 0
6:35 am 06:35 Clear 34 1 31 -0.7 89 89 NE 5 7 30.21 1023 10 16.0934 0 0
6:55 am 06:55 Sunny 34 1.3 31 -0.5 88 88 NE 5 7 30.21 1023 10 16.0934 0 0
7:15 am 07:15 Sunny 35 1.4 31 -0.4 88 88 NE 7 11 30.21 1023 10 16.0934 0 0
7:35 am 07:35 Sunny 37 2.8 34 0.9 87 87 NE 7 11 30.21 1023 10 16.0934 0 0
7:55 am 07:55 Sunny 41 4.9 35 1.5 79 79 ENE 8 13 30.18 1022 10 16.0934 0 0
8:15 am 08:15 Sunny 42 5.8 35 1.6 75 75 E 9 15 30.18 1022 10 16.0934 0 0
8:35 am 08:35 Sunny 44 6.8 36 2 72 72 E 10 17 30.18 1022 10 16.0934 0 0
8:55 am 08:55 Sunny 46 7.9 36 2.2 68 68 E 12 19 30.18 1022 10 16.0934 0 0
9:15 am 09:15 Sunny 47 8.6 37 2.5 66 66 E 12 19 30.18 1022 10 16.0934 0 0
9:35 am 09:35 Sunny 49 9.3 36 2.3 62 62 ESE 12 19 30.18 1022 10 16.0934 0 0
9:55 am 09:55 Sunny 50 10 37 2.7 61 61 ESE 10 17 30.18 1022 10 16.0934 0 0
10:15 am 10:15 Sunny 51 10.6 37 2.9 59 59 E 12 19 30.18 1022 10 16.0934 0 0
10:35 am 10:35 Sunny 52 11.2 37 2.9 57 57 ESE 13 20 30.15 1021 10 16.0934 0 0
10:55 am 10:55 Sunny 53 11.5 37 2.6 55 55 E 8 13 30.15 1021 10 16.0934 0 0
11:15 am 11:15 Sunny 54 12.2 37 2.9 53 53 E 13 20 30.15 1021 10 16.0934 0 0
11:35 am 11:35 Sunny 54 12.4 36 2 49 49 E 10 17 30.15 1021 10 16.0934 0 0
11:55 am 11:55 Sunny 56 13.2 36 2.1 47 47 E 13 20 30.15 1021 10 16.0934 0 0
12:15 pm 12:15 Sunny 56 13.5 34 1.2 43 43 ESE 12 19 30.15 1021 10 16.0934 0 0
12:35 pm 12:35 Sunny 58 14.2 35 1.8 43 43 ESE 9 15 30.12 1020 10 16.0934 0 0
12:55 pm 12:55 Sunny 58 14.5 34 0.9 40 40 ESE 9 15 30.09 1019 10 16.0934 0 0
1:15 pm 13:15 Sunny 59 15.1 35 1.4 40 40 E 14 22 30.09 1019 10 16.0934 0 0
1:35 pm 13:35 Sunny 60 15.8 35 1.4 38 38 E 8 13 30.09 1019 10 16.0934 0 0
1:55 pm 13:55 Sunny 61 16 33 0.7 36 36 ESE 14 22 30.09 1019 10 16.0934 0 0
2:15 pm 14:15 Sunny 62 16.6 33 0.6 34 34 ESE 13 20 30.09 1019 10 16.0934 0 0
2:35 pm 14:35 Sunny 62 16.8 33 0.4 33 33 ESE 10 17 30.09 1019 10 16.0934 0 0
2:55 pm 14:55 Sunny 64 17.8 33 0.7 32 32 ESE 9 15 30.06 1018 10 16.0934 0 0
3:15 pm 15:15 Sunny 64 17.6 33 0.7 32 32 ESE 15 24 30.03 1017 10 16.0934 0 0
3:35 pm 15:35 Sunny 65 18.4 33 0.8 31 31 ESE 16 26 30.03 1017 10 16.0934 0 0
3:55 pm 15:55 Sunny 65 18.5 31 -0.3 28 28 SE 14 22 30.03 1017 10 16.0934 0 0
4:15 pm 16:15 Sunny 66 19 32 -0.1 28 28 SE 17 28 30 1016 10 16.0934 0 0
4:35 pm 16:35 Sunny 67 19.2 32 -0.2 27 27 ESE 17 28 30 1016 10 16.0934 0 0
4:55 pm 16:55 Sunny 67 19.2 32 0 28 28 SE 16 26 30 1016 10 16.0934 0 0
5:15 pm 17:15 Sunny 67 19.4 32 0 27 27 SE 17 28 30 1016 10 16.0934 0 0
5:35 pm 17:35 Sunny 67 19.3 33 0.3 28 28 SE 18 30 30 1016 10 16.0934 0 0
5:55 pm 17:55 Sunny 67 19.2 32 0.2 28 28 SE 15 24 29.97 1015 10 16.0934 0 0
6:15 pm 18:15 Sunny 67 19.2 32 0.2 28 28 SSE 18 30 29.97 1015 10 16.0934 0 0
6:35 pm 18:35 Sunny 66 18.9 33 0.5 29 29 SE 18 30 29.97 1015 10 16.0934 0 0
6:55 pm 18:55 Sunny 66 18.7 33 0.8 30 30 SE 18 30 29.97 1015 10 16.0934 0 0
7:15 pm 19:15 Sunny 65 18.5 33 0.6 30 30 SE 15 24 29.97 1015 10 16.0934 0 0
7:35 pm 19:35 Sunny 64 18 34 1 32 32 SE 16 26 29.97 1015 10 16.0934 0 0
7:55 pm 19:55 Sunny 63 17.1 34 0.9 34 34 SE 16 26 29.97 1015 10 16.0934 0 0
8:15 pm 20:15 Sunny 60 15.8 33 0.7 36 36 SE 12 19 30 1016 10 16.0934 0 0
8:35 pm 20:35 Clear 57 13.8 33 0.6 41 41 SE 9 15 30.03 1017 10 16.0934 0 0
8:55 pm 20:55 Clear 55 13 33 0.7 43 43 SE 9 15 30.06 1018 10 16.0934 0 0
9:15 pm 21:15 Clear 52 11 34 1 50 50 SE 10 17 30.06 1018 10 16.0934 0 0
9:35 pm 21:35 Clear 51 10.4 34 1 52 52 ESE 12 19 30.06 1018 10 16.0934 0 0
9:55 pm 21:55 Clear 52 11 34 1.1 51 51 ESE 12 19 30.06 1018 10 16.0934 0 0
10:15 pm 22:15 Clear 51 10.7 34 1.2 52 52 ESE 13 20 30.03 1017 10 16.0934 0 0
10:35 pm 22:35 Clear 52 11 34 1.2 51 51 ESE 14 22 30.03 1017 10 16.0934 0 0
10:55 pm 22:55 Clear 51 10.4 34 1.2 53 53 ESE 13 20 30.03 1017 10 16.0934 0 0
11:15 pm 23:15 Clear 51 10.6 34 1.3 53 53 SE 13 20 30.03 1017 10 16.0934 0 0
11:35 pm 23:35 Clear 52 11.2 34 1.2 50 50 SE 16 26 30.03 1017 10 16.0934 0 0
11:55 pm 23:55 Clear 52 11 34 1.2 51 51 SE 15 24 30.03 1017 10 16.0934 0 0

Powered by AerisWeather